CW2640 Weather Reports


Display with metric or nautical units.
time (UTC)temp
F
wind
direction
speed
MPH
gust
MPH
rain 1hr
in
rain 24hr
in
rain mn
in
humidity
%
barometer
mb
20260510172923 78 80 0.0 0.0 0.00 0.00 0.00 68 1017.9
20260510165919 78 80 0.0 0.0 0.00 0.00 0.00 70 1018.3
20260510162919 77 80 0.0 0.0 0.00 0.00 0.00 72 1018.6
20260510155919 75 80 0.0 0.0 0.00 0.00 0.00 78 1018.7
20260510152919 73 80 0.0 0.0 0.00 0.00 0.00 80 1018.3
20260510145916 70 80 0.0 0.0 0.00 0.00 0.00 89 1018.4
20260510142912 69 80 0.0 0.0 0.00 0.00 0.00 92 1018.3
20260510135913 67 80 0.0 0.0 0.00 0.00 0.00 96 1018.8
20260510132908 65 80 0.0 0.0 0.00 0.00 0.00 99 1018.3
20260510125908 64 80 0.0 0.0 0.00 0.00 0.00 99 1018.1
20260510122904 64 80 0.0 0.0 0.00 0.00 0.00 99 1017.8
20260510115900 64 80 0.0 0.0 0.00 0.00 0.00 99 1017.0
20260510112855 63 80 0.0 0.0 0.00 0.00 0.00 99 1016.4
20260510105851 63 80 0.0 0.0 0.00 0.00 0.00 99 1016.1
20260510102850 63 80 0.0 0.0 0.00 0.00 0.00 99 1015.5
20260510095849 63 80 0.0 0.0 0.00 0.00 0.00 99 1015.2
20260510092846 64 80 0.0 0.0 0.00 0.00 0.00 99 1015.3
20260510085841 64 80 0.0 0.0 0.00 0.00 0.00 99 1014.9
20260510082841 64 80 0.0 0.0 0.00 0.00 0.00 99 1014.6
20260510075839 64 80 0.0 0.0 0.00 0.00 0.00 99 1014.5
20260510072836 64 80 0.0 0.0 0.00 0.00 0.00 99 1014.4
20260510065833 64 80 0.0 0.0 0.00 0.00 0.00 99 1014.2
20260510062831 64 80 0.0 0.0 0.00 0.00 0.00 99 1014.6
20260510055826 65 80 0.0 0.0 0.00 0.00 0.00 99 1014.8
20260510052825 64 80 0.0 0.0 0.00 0.00 0.00 99 1014.8
20260510045823 63 80 0.0 0.0 0.00 0.00 0.00 99 1014.8
20260510042821 62 80 0.0 0.0 0.00 0.00 0.00 99 1015.0
20260510035817 63 80 0.0 0.0 0.00 0.00 0.00 99 1015.0
20260510032815 63 80 0.0 0.0 0.00 0.00 0.00 99 1015.0
20260510025815 63 80 0.0 0.0 0.00 0.00 0.00 99 1014.7
20260510022813 64 80 0.0 0.0 0.00 0.00 0.00 99 1014.4
20260510015807 65 80 0.0 0.0 0.00 0.00 0.00 99 1014.0
20260510012806 66 80 0.0 0.0 0.00 0.00 0.00 99 1013.2
20260510005804 67 84 0.0 0.0 0.00 0.00 0.00 99 1012.9
20260510002800 68 88 0.0 0.0 0.00 0.00 0.00 99 1012.7
20260509235755 69 89 0.0 0.0 0.00 0.00 0.00 96 1012.4
20260509232753 71 90 0.0 0.0 0.00 0.00 0.00 93 1012.2
20260509225750 71 90 0.0 0.0 0.00 0.00 0.00 89 1012.2
20260509222748 72 89 0.0 0.0 0.00 0.00 0.00 87 1012.1
20260509215748 73 89 0.0 0.0 0.00 0.00 0.00 84 1011.9
20260509212746 73 83 0.0 0.0 0.00 0.00 0.00 83 1011.7
20260509205746 73 81 0.0 0.0 0.00 0.00 0.00 82 1011.4
20260509202742 74 80 0.0 0.0 0.00 0.00 0.00 80 1011.9
20260509195740 74 80 0.0 0.0 0.00 0.00 0.00 79 1011.8
20260509192737 73 80 0.0 0.0 0.00 0.00 0.00 81 1012.3
20260509185738 71 80 0.0 0.0 0.00 0.00 0.00 81 1012.5
20260509182733 71 80 0.0 0.0 0.00 0.00 0.00 83 1012.9
20260509175732 70 80 0.0 0.0 0.00 0.00 0.00 85 1013.3